DW4862 Weather Reports


time (UTC)temp
C
wind
direction
speed
KPH
gust
KPH
rain 1hr
cm
rain 24hr
cm
rain mn
cm
humidity
%
barometer
mb
20260510011509 20 205 0.0 0.0 0.00 0.10 0.10 71 1008.9
20260510010008 21 205 0.0 0.0 0.00 0.10 0.10 67 1008.7
20260510004508 22 204 0.0 0.0 0.00 0.10 0.10 63 1008.5
20260510003007 23 204 0.0 0.0 0.00 0.10 0.10 60 1008.3
20260510001518 25 205 0.0 0.0 0.00 0.10 0.10 56 1008.2
20260510000007 25 205 0.0 0.0 0.00 0.10 0.10 56 1008.2
20260509234509 26 331 0.0 0.0 0.00 0.10 0.10 54 1008.2
20260509233005 25 199 0.0 1.6 0.00 0.10 0.10 54 1008.3
20260509231506 25 210 0.0 1.6 0.00 0.10 0.10 54 1008.2
20260509230004 26 201 0.0 3.2 0.00 0.10 0.10 52 1008.2
20260509224502 26 221 0.0 4.8 0.00 0.10 0.10 52 1008.1
20260509223002 26 18 0.0 6.4 0.00 0.10 0.10 51 1008.3
20260509221502 26 278 1.6 9.7 0.00 0.10 0.10 48 1008.0
20260509220105 26 284 0.0 12.9 0.00 0.10 0.10 48 1007.9
20260509214559 26 27 0.0 14.5 0.00 0.10 0.10 51 1007.8
20260509213104 26 320 0.0 6.4 0.00 0.10 0.10 52 1007.8
20260509211603 26 215 0.0 11.3 0.00 0.10 0.10 49 1007.9
20260509210100 26 211 0.0 6.4 0.00 0.10 0.10 49 1008.0
20260509204600 26 302 0.0 6.4 0.00 0.10 0.10 46 1008.2
20260509203053 26 204 0.0 6.4 0.00 0.10 0.10 49 1008.1
20260509201550 25 258 0.0 8.0 0.00 0.10 0.10 50 1008.3
20260509200048 25 223 0.0 6.4 0.00 0.10 0.10 54 1008.4
20260509194546 25 232 0.0 6.4 0.00 0.10 0.10 55 1008.4
20260509193045 25 225 0.0 4.8 0.00 0.10 0.10 58 1008.5
20260509191541 24 218 0.0 4.8 0.00 0.10 0.10 62 1008.7
20260509190038 23 211 0.0 6.4 0.00 0.10 0.10 63 1008.9
20260509184536 22 205 0.0 11.3 0.00 0.10 0.10 67 1009.0
20260509183032 22 326 0.0 6.4 0.00 0.10 0.10 68 1009.2
20260509181526 21 207 0.0 6.4 0.00 0.10 0.10 67 1009.4
20260509180025 21 212 3.2 6.4 0.00 0.10 0.10 69 1009.4
20260509174521 20 214 0.0 4.8 0.00 0.10 0.10 73 1009.6
20260509173019 20 220 0.0 4.8 0.00 0.10 0.10 74 1009.9
20260509171515 20 214 0.0 6.4 0.00 0.10 0.10 76 1010.1
20260509170015 19 203 0.0 4.8 0.00 0.10 0.10 75 1010.0
20260509164512 19 32 0.0 11.3 0.00 0.10 0.10 76 1010.2
20260509163017 18 271 0.0 6.4 0.00 0.10 0.10 79 1010.3
20260509161509 18 218 0.0 6.4 0.00 0.10 0.10 78 1010.1
20260509160003 17 208 0.0 4.8 0.00 0.10 0.10 80 1010.1
20260509154616 17 222 0.0 4.8 0.00 0.10 0.10 80 1010.0
20260509153058 17 213 0.0 4.8 0.00 0.10 0.10 83 1009.9
20260509151555 16 217 0.0 4.8 0.00 0.10 0.10 83 1009.5
20260509150052 16 221 0.0 3.2 0.00 0.10 0.10 84 1009.4
20260509144605 16 278 0.0 4.8 0.00 0.10 0.10 86 1009.5
20260509143052 16 217 0.0 4.8 0.00 0.10 0.10 87 1009.5
20260509141544 15 220 0.0 8.0 0.00 0.10 0.10 94 1009.5
20260509140057 14 213 0.0 3.2 0.00 0.10 0.10 94 1009.4
20260509134544 13 210 0.0 1.6 0.00 0.10 0.10 94 1009.5
20260509133040 12 214 0.0 1.6 0.00 0.10 0.10 95 1009.4
20260509131552 12 274 0.0 1.6 0.00 0.10 0.10 95 1009.2
20260509130038 12 274 0.0 0.0 0.00 0.10 0.10 95 1009.1
20260509124542 11 274 0.0 0.0 0.00 0.10 0.10 95 1009.2
20260509123037 11 274 0.0 0.0 0.00 0.10 0.10 95 1009.1
20260509121549 11 274 0.0 0.0 0.00 0.10 0.10 95 1009.1
20260509120037 10 274 0.0 0.0 0.00 0.10 0.10 95 1009.0
20260509114535 10 274 0.0 0.0 0.00 0.10 0.10 95 1008.8
20260509113034 10 274 0.0 0.0 0.00 0.10 0.10 95 1008.5
20260509111532 10 274 0.0 0.0 0.00 0.10 0.10 95 1008.5
20260509110032 10 274 0.0 0.0 0.00 0.10 0.10 95 1008.4
20260509104529 10 274 0.0 0.0 0.00 0.10 0.10 95 1008.2
20260509103027 10 274 0.0 0.0 0.00 0.10 0.10 95 1008.0
20260509101525 11 274 0.0 0.0 0.00 0.10 0.10 95 1007.9
20260509100028 11 274 0.0 0.0 0.00 0.10 0.10 95 1008.0
20260509094520 11 274 0.0 0.0 0.00 0.10 0.10 95 1007.9
20260509093018 11 274 0.0 0.0 0.00 0.10 0.10 95 1007.8
20260509091515 12 274 0.0 0.0 0.00 0.10 0.10 95 1007.7
20260509090014 12 274 0.0 0.0 0.00 0.10 0.10 95 1007.5
20260509084515 12 274 0.0 0.0 0.00 0.10 0.10 95 1007.3
20260509083009 13 274 0.0 0.0 0.03 0.10 0.10 95 1007.1
20260509081507 13 274 0.0 0.0 0.05 0.10 0.10 95 1007.2
20260509080004 13 274 0.0 0.0 0.08 0.10 0.10 95 1007.5
20260509074603 13 274 0.0 0.0 0.10 0.10 0.10 95 1007.9
20260509073058 13 274 0.0 0.0 0.08 0.08 0.08 94 1008.1
20260509071556 13 275 0.0 0.0 0.05 0.05 0.05 94 1008.6
20260509070053 13 276 0.0 1.6 0.03 0.03 0.03 94 1008.9
20260509064550 13 279 0.0 1.6 0.00 0.00 0.00 94 1009.1
20260509063101 13 280 0.0 0.0 0.00 0.00 0.00 93 1009.1
20260509061548 14 280 0.0 1.6 0.00 0.00 0.00 93 1009.3
20260509060052 14 281 0.0 1.6 0.00 0.00 0.00 92 1009.6
20260509054544 14 281 0.0 1.6 0.00 0.00 0.00 91 1009.8
20260509053107 14 281 0.0 0.0 0.00 0.00 0.00 91 1009.6
20260509051541 14 281 0.0 0.0 0.00 0.00 0.00 91 1009.4
20260509050037 15 281 0.0 0.0 0.00 0.00 0.00 91 1009.2
20260509044535 15 281 0.0 4.8 0.00 0.00 0.00 90 1009.1
20260509043041 15 213 0.0 1.6 0.00 0.00 0.00 90 1009.2
20260509041543 15 213 0.0 1.6 0.00 0.00 0.00 89 1008.9
20260509040033 16 213 0.0 0.0 0.00 0.00 0.00 88 1009.0
20260509034532 16 212 0.0 1.6 0.00 0.00 0.00 86 1008.9
20260509033031 16 213 0.0 1.6 0.00 0.00 0.00 83 1008.8
20260509031531 16 213 0.0 0.0 0.00 0.00 0.00 80 1008.8
20260509030028 17 212 0.0 0.0 0.00 0.00 0.00 77 1008.8
20260509024527 17 212 0.0 0.0 0.00 0.00 0.00 73 1008.7
20260509023025 17 212 0.0 0.0 0.00 0.00 0.00 70 1008.5
20260509021525 17 213 0.0 0.0 0.00 0.00 0.00 68 1008.5
20260509020025 18 213 0.0 0.0 0.00 0.00 0.00 68 1008.5
20260509014521 18 212 0.0 0.0 0.00 0.00 0.00 65 1008.3
20260509013021 18 212 0.0 0.0 0.00 0.00 0.00 65 1008.4